Flag for Portugal Weather past 2 weeks in Coimbra, Portugal

Now
48 °F

Clear.


Feels Like: 48 °F
Forecast: N/A
Wind: 2 mph from Northeast

Location: Porto / Pedras Rubras

Current Time: Mar 6, 2015 at 9:42:52 PM

Latest Report: Mar 6, 2015 at 9:00 PM


Visibility: 10 mi

Pressure: 30.36 "Hg

Humidity: 71%

Dew point: 39 °F

Location of CoimbraLocation

Historic Weather in Coimbra — Graph

°F

Coimbra temperature yesterday

Maximum temperature yesterday: 66 °F (at 2:00 PM)
Minimum temperature yesterday: 43 °F (at 10:30 PM)
Average temperature yesterday: 53 °F

Past Weeks' High & Low Weather Summary

 TemperatureHumidityPressure
High68 °F (Mar 6, 1:00 PM)100% (Feb 20, 3:30 PM)30.60 "Hg (Feb 20, 3:30 PM)
Low41 °F (Feb 22, 1:00 AM)20% (Mar 6, 1:30 PM)29.92 "Hg (Feb 21, 1:00 AM)
Average53 °F84%30.33 "Hg
* Reported Feb 19 8:00 PM — Mar 6 8:00 PM, Coimbra, Weather by CustomWeather, © 2015

Note: Actual official high and low records may vary slightly from our data, if they occured in-between our weather recording intervals... More about our weather records

Advertising

Coimbra weather history for previous 24 hours

 ConditionsComfort  
Time TempWeatherWind HumidityBarometerVisibility
8:00 PM
Fri, Mar 6
50 °FClear.2 mph62%30.36 "Hg10 mi
7:30 PM52 °FPassing clouds.3 mph58%30.33 "HgN/A
7:00 PM52 °FClear.2 mph58%30.33 "Hg10 mi
6:30 PM55 °FClear.5 mph51%30.33 "Hg10 mi
6:00 PM57 °FSunny.5 mph48%30.33 "Hg10 mi
5:30 PM61 °FSunny.7 mph39%30.33 "Hg10 mi
5:00 PM63 °FSunny.7 mph37%30.33 "Hg10 mi
4:30 PM63 °FSunny.7 mph45%30.33 "Hg10 mi
4:00 PM63 °FSunny.8 mph42%30.36 "Hg10 mi
3:30 PM63 °FPassing clouds.10 mph37%30.36 "HgN/A
3:00 PM63 °FPassing clouds.9 mph49%30.36 "HgN/A
2:30 PM64 °FSunny.8 mph46%30.36 "Hg10 mi
2:00 PM66 °FPassing clouds.7 mph40%30.36 "HgN/A
1:30 PM68 °FSunny.5 mph20%30.36 "Hg10 mi
1:00 PM68 °FPassing clouds.7 mph23%30.36 "HgN/A
12:30 PM66 °FSunny.8 mph22%30.39 "Hg10 mi
12:00 PM64 °FSunny.10 mph26%30.39 "Hg10 mi
11:30 AM63 °FSunny.12 mph27%30.39 "Hg10 mi
11:00 AM61 °FSunny.13 mph29%30.39 "Hg10 mi
10:30 AM59 °FSunny.14 mph29%30.39 "Hg10 mi
10:00 AM57 °FSunny.16 mph29%30.39 "Hg10 mi
9:30 AM55 °FSunny.15 mph31%30.39 "Hg10 mi
9:00 AM54 °FSunny.12 mph33%30.39 "Hg10 mi
8:30 AM52 °FSunny.10 mph35%30.39 "Hg10 mi
8:00 AM50 °FSunny.8 mph32%30.39 "Hg10 mi
7:30 AM50 °FPassing clouds.9 mph32%30.39 "HgN/A
7:00 AM46 °FPassing clouds.6 mph40%30.39 "HgN/A
6:30 AM48 °FClear.7 mph37%30.39 "Hg10 mi
6:00 AM50 °FPassing clouds.6 mph35%30.39 "HgN/A
5:30 AM50 °FPassing clouds.9 mph35%30.36 "HgN/A
5:00 AM48 °FClear.10 mph40%30.36 "Hg10 mi
4:30 AM50 °FClear.9 mph35%30.36 "Hg10 mi
4:00 AM52 °FClear.12 mph32%30.36 "Hg10 mi
3:00 AM54 °FClear.17 mph30%30.36 "Hg10 mi
2:30 AM54 °FClear.12 mph30%30.39 "Hg10 mi
2:00 AM54 °FClear.13 mph30%30.39 "Hg10 mi
1:30 AM54 °FClear.13 mph35%30.39 "Hg10 mi
1:00 AM52 °FClear.14 mph41%30.39 "Hg10 mi
12:52 AM50 °FClear.12 mph50%30.39 "Hg10 mi
12:00 AM41 °FClear.6 mph93%30.39 "Hg10 mi
11:30 PM
Thu, Mar 5
45 °FClear.5 mph93%30.39 "Hg10 mi
11:00 PM43 °FClear.3 mph100%30.39 "Hg10 mi
10:30 PM43 °FClear.2 mph100%30.39 "Hg10 mi
10:00 PM45 °FClear.1 mph93%30.39 "Hg10 mi
9:30 PM45 °FClear.No wind93%30.39 "Hg10 mi
Weather by CustomWeather, © 2015

See weather overviewHow to use our weather pages